Weather History for Tijuana, Mexico

Change the Weather History Date:

Friday, December 13, 2013

  Actual Average Record
Temperature  
Mean Temperature 52 °F -  
Max Temperature 64 °F 66 °F 84 °F (2010)
Min Temperature 39 °F 46 °F 39 °F (2013)
Degree Days  
Heating Degree Days 14    
Growing Degree Days 2 (Base 50)    
Moisture  
Dew Point 36 °F    
Average Humidity 59    
Maximum Humidity 87    
Minimum Humidity 22    
Precipitation  
Precipitation 0.00 in - - ()
Sea Level Pressure  
Sea Level Pressure 30.21 in    
Wind  
Wind Speed 3 mph ()    
Max Wind Speed 16 mph    
Max Gust Speed -    
Visibility 7.5 miles    
Events      
Averages and records for this station are not official NWS values.
T = Trace of Precipitation, MM = Missing Value Source: Averaged Metar Reports

Daily Weather History Graph

Daily Weather History Graph

Search for Another Location

Airport:

Trip Planner

Search our weather history database for the weather conditions in past years. The results will help you decide how hot, cold, wet, or windy it might be!

Date:

Astronomy

Dec. 13, 2013 Rise Set
Actual Time 6:41 AM PST 4:43 PM PST
Civil Twilight 6:14 AM PST 5:10 PM PST
Nautical Twilight 5:43 AM PST 5:41 PM PST
Astronomical Twilight 5:13 AM PST 6:11 PM PST
Moon 2:22 PM PST (12/13) 3:16 AM PST (12/13)
Length of Visible Light 10h 56m
Length of Day
10h 02m
Waxing Gibbous, 88% of the Moon is Illuminated
Dec 13
Waxing Gibbous
Dec 17
Full
Dec 25
Last Quarter
Jan 1
New
Jan 7
First Quarter

Hourly Weather History & Observations

Time (PST) Temp. Windchill Dew Point Humidity Pressure Visibility Wind Dir Wind Speed Gust Speed Precip Events Conditions
4:52 AM 44.6 °F - 33.8 °F 66% 30.20 in 7.0 mi Calm Calm - N/A   Clear
5:50 AM 39.2 °F - 28.4 °F 65% 30.23 in 7.0 mi Calm Calm - N/A   Clear
6:48 AM 42.8 °F 38.6 °F 30.2 °F 61% 30.22 in 10.0 mi ENE 6.9 mph - N/A   Partly Cloudy
7:53 AM 46.4 °F 44.3 °F 30.2 °F 53% 30.23 in 10.0 mi SE 4.6 mph - N/A   Scattered Clouds
8:43 AM 50.0 °F - 30.2 °F 47% 30.24 in 10.0 mi Calm Calm - N/A   Scattered Clouds
9:52 AM 57.2 °F - 28.4 °F 33% 30.26 in 10.0 mi ENE 3.5 mph - N/A   Partly Cloudy
10:49 AM 60.8 °F - 28.4 °F 29% 30.23 in 8.0 mi SE 3.5 mph - N/A   Partly Cloudy
11:41 AM 64.4 °F - 24.8 °F 22% 30.20 in 8.0 mi East 3.5 mph - N/A   Partly Cloudy
12:48 PM 64.4 °F - 24.8 °F 22% 30.19 in 10.0 mi WSW 3.5 mph - N/A   Partly Cloudy
1:47 PM 62.6 °F - 33.8 °F 34% 30.15 in 8.0 mi West 13.8 mph - N/A   Partly Cloudy
2:44 PM 60.8 °F - 35.6 °F 39% 30.15 in 8.0 mi West 16.1 mph - N/A   Partly Cloudy
3:47 PM 57.2 °F - 42.8 °F 59% 30.19 in 7.0 mi NW 8.1 mph - N/A   Partly Cloudy
4:49 PM 55.4 °F - 46.4 °F 72% 30.18 in 6.0 mi NNW 5.8 mph - N/A   Partly Cloudy
5:44 PM 50.0 °F - 44.6 °F 82% 30.18 in 6.0 mi Calm Calm - N/A   Clear
6:50 PM 50.0 °F - 46.4 °F 87% 30.26 in 6.0 mi Calm Calm - N/A   Clear
7:50 PM 50.0 °F - 46.4 °F 87% 30.20 in 6.0 mi Calm Calm - N/A   Clear
8:45 PM 48.2 °F - 44.6 °F 87% 30.20 in 6.0 mi Calm Calm - N/A   Clear
9:44 PM 46.4 °F - 42.8 °F 87% 30.25 in 5.0 mi Calm Calm - N/A   Partly Cloudy
10:50 PM 46.4 °F 44.3 °F 41.0 °F 81% 30.22 in 5.0 mi ESE 4.6 mph - N/A   Partly Cloudy
11:40 PM 48.2 °F - 41.0 °F 76% 30.20 in 8.0 mi Calm Calm - N/A   Partly Cloudy